ORANGE GROVE, NALF, TX

10:31 PM CDT on May 26, 2017 (GMT -0500)
Orange Grove Naval Air Landing Field

Weather History for KNOG - December, 2013

Change the Weather History Date:

Friday, December 6, 2013

  Actual Average (KALI) Record (KALI)
Temperature  
Mean Temperature 46 °F -  
Max Temperature 52 °F 69 °F 87 °F (1998)
Min Temperature 39 °F 48 °F 30 °F (1999)
Degree Days  
Heating Degree Days 20    
Moisture  
Dew Point 33 °F    
Average Humidity 64    
Maximum Humidity 79    
Minimum Humidity 50    
Precipitation  
Precipitation 0.00 in - - ()
Sea Level Pressure  
Sea Level Pressure 30.13 in    
Wind  
Wind Speed 17 mph (North)    
Max Wind Speed 22 mph    
Max Gust Speed 30 mph    
Visibility 10 miles    
Events Rain    
Averages and records for this station are not official NWS values.
T = Trace of Precipitation, MM = Missing Value Source: NWS Daily Summary

Daily Weather History Graph

Daily Weather History Graph

Search for Another Location

Airport or City:

Trip Planner

Search our weather history database for the weather conditions in past years. The results will help you decide how hot, cold, wet, or windy it might be!

Date:

Astronomy

Dec. 06, 2013 Rise Set
Actual Time 7:09 AM CST 5:36 PM CST
Civil Twilight 6:44 AM CST 6:02 PM CST
Nautical Twilight 6:15 AM CST 6:31 PM CST
Astronomical Twilight 5:46 AM CST 6:59 PM CST
Moon 10:27 AM CST (12/6) 9:56 PM CST (12/6)
Length of Visible Light 11h 18m
Length of Day
10h 26m
Waxing Crescent, 19% of the Moon is Illuminated
Dec 6
Waxing Crescent
Dec 9
First Quarter
Dec 17
Full
Dec 25
Last Quarter
Jan 1
New

Hourly Weather History & Observations

Time (CST) Temp. Windchill Dew Point Humidity Pressure Visibility Wind Dir Wind Speed Gust Speed Precip Events Conditions
12:56 AM 41.0 °F 32.8 °F 33.1 °F 73% 29.97 in 10.0 mi North 16.1 mph - 0.00 in   Overcast
1:56 AM 41.0 °F 32.5 °F 32.0 °F 70% 29.99 in 10.0 mi NNW 17.3 mph - 0.00 in Rain Light Rain
2:56 AM 39.9 °F 31.8 °F 33.1 °F 77% 30.00 in - North 15.0 mph - 0.00 in Rain Light Rain
3:56 AM 44.1 °F 37.1 °F 32.0 °F 63% 30.01 in - North 15.0 mph - 0.00 in   Overcast
4:56 AM 44.1 °F 36.2 °F 32.0 °F 63% 30.02 in 10.0 mi North 18.4 mph - 0.00 in Rain Light Rain
5:26 AM 48.0 °F - 33.1 °F 56% 30.07 in 10.0 mi North 15.0 mph - 0.00 in Rain Light Rain
5:56 AM 41.0 °F 32.8 °F 33.1 °F 73% 30.05 in 10.0 mi North 16.1 mph - 0.00 in Rain Light Rain
6:56 AM 39.9 °F 32.1 °F 34.0 °F 79% 30.07 in 10.0 mi North 13.8 mph - 0.00 in   Overcast
7:56 AM 43.0 °F 35.1 °F 34.0 °F 71% 30.11 in 10.0 mi North 17.3 mph 24.2 mph 0.00 in Rain Light Rain
8:56 AM 42.1 °F 32.8 °F 34.0 °F 73% 30.15 in 10.0 mi North 21.9 mph 29.9 mph 0.00 in   Overcast
9:56 AM 42.1 °F 33.1 °F 33.1 °F 70% 30.18 in 10.0 mi North 20.7 mph 28.8 mph 0.00 in   Overcast
10:56 AM 45.0 °F 37.1 °F 34.0 °F 65% 30.19 in 10.0 mi North 19.6 mph - 0.00 in   Overcast
11:56 AM 46.0 °F 39.0 °F 34.0 °F 63% 30.19 in 10.0 mi North 17.3 mph 25.3 mph 0.00 in   Overcast
12:27 PM 48.0 °F - 34.0 °F 58% 30.23 in 10.0 mi North 16.1 mph 26.5 mph N/A   Overcast
12:56 PM 48.9 °F - 34.0 °F 56% 30.17 in 10.0 mi North 15.0 mph 25.3 mph N/A   Overcast
1:56 PM 50.0 °F - 35.1 °F 57% 30.15 in 10.0 mi North 15.0 mph - N/A   Overcast
2:56 PM 52.0 °F - 34.0 °F 50% 30.16 in 10.0 mi North 18.4 mph 24.2 mph N/A   Overcast
3:56 PM 50.0 °F - 33.1 °F 52% 30.17 in 10.0 mi NNE 19.6 mph - N/A   Overcast
4:56 PM 51.1 °F - 34.0 °F 52% 30.19 in 10.0 mi North 17.3 mph - N/A   Overcast
5:56 PM 46.9 °F - 33.1 °F 59% 30.22 in 10.0 mi NNE 18.4 mph - N/A   Overcast
6:56 PM 45.0 °F 37.4 °F 32.0 °F 60% 30.26 in 10.0 mi North 18.4 mph - N/A   Mostly Cloudy
7:56 PM 43.0 °F 35.1 °F 30.9 °F 62% 30.29 in 10.0 mi North 17.3 mph - N/A   Clear